Home   Weather   Naples   Past weeks

Flag for USA Past Weather in Naples, Florida, USA — Yesterday and Last 2 Weeks

Now
77 °F

Clear.


Feels Like: 78 °F
Forecast: 79 / 90 °F
Wind: 6 mph from East

Location: Naples Municipal

Current Time: Aug 17, 2017 at 5:42:22 am

Latest Report: Aug 17, 2017 at 4:53 am


Visibility: 10 mi

Pressure: 30.03 "Hg

Humidity: 94%

Dew Point: 75 °F

Location of NaplesLocation

Past Weather in Naples — Graph

°F

Naples Temperature Yesterday

Maximum temperature yesterday: 91 °F (at 11:53 am)
Minimum temperature yesterday: 75 °F (at 4:22 pm)
Average temperature yesterday: 83 °F

High & Low Weather Summary for the Past Weeks

 TemperatureHumidityPressure
High92 °F (Aug 3, 1:53 pm)100% (Aug 2, 4:53 am)30.14 "Hg (Aug 2, 4:53 am)
Low75 °F (Aug 2, 3:53 am)51% (Aug 7, 3:53 pm)29.93 "Hg (Aug 8, 5:53 pm)
Average84 °F79%30.03 "Hg
* Reported Aug 2 3:53 am — Aug 17 3:53 am, Naples. Weather by CustomWeather, © 2017

Note: Actual official high and low records may vary slightly from our data, if they occured in-between our weather recording intervals... More about our weather records

Advertising

Naples Weather History for the Previous 24 Hours

Scroll right to see more
 ConditionsComfort  
Time TempWeatherWind HumidityBarometerVisibility
3:53 am
Thu, Aug 17
77 °FClear.5 mph94%30.04 "Hg10 mi
2:53 am77 °FClear.6 mph94%30.05 "Hg10 mi
1:53 am78 °FClear.3 mph93%30.06 "Hg10 mi
12:53 am78 °FClear.5 mph93%30.07 "Hg10 mi
11:53 pm
Wed, Aug 16
78 °FClear.5 mph93%30.07 "Hg10 mi
10:53 pm79 °FClear.3 mph94%30.07 "Hg10 mi
9:53 pm80 °FClear.No wind90%30.06 "Hg10 mi
8:53 pm80 °FClear.3 mph90%30.05 "Hg10 mi
7:53 pm81 °FSunny.No wind88%30.04 "Hg10 mi
6:53 pm80 °FPartly sunny.5 mph90%30.04 "Hg10 mi
5:53 pm79 °FScattered clouds.9 mph88%30.05 "Hg10 mi
5:19 pm78 °FLight rain. Broken clouds.6 mph84%30.04 "Hg9 mi
5:00 pm77 °FThunderstorms. Broken clouds.6 mph82%30.04 "Hg9 mi
4:37 pm79 °FStrong thunderstorms. Dense fog.12 mph69%30.07 "Hg1 mi
4:22 pm75 °FThunderstorms. Mostly cloudy.23 mph82%30.06 "Hg1 mi
3:53 pm89 °FThunderstorms. Broken clouds.8 mph65%30.03 "Hg7 mi
3:30 pm89 °FThunderstorms. Broken clouds.12 mph68%30.05 "Hg10 mi
3:17 pm91 °FThundershowers. Broken clouds.9 mph64%30.04 "Hg10 mi
2:53 pm89 °FLight rain. Scattered clouds.10 mph70%30.03 "Hg10 mi
1:53 pm90 °FPassing clouds.9 mph66%30.05 "Hg10 mi
12:53 pm89 °FBroken clouds.6 mph68%30.08 "Hg10 mi
11:53 am91 °FScattered clouds.6 mph60%30.09 "Hg10 mi
10:53 am90 °FPassing clouds.N/A66%30.09 "Hg10 mi
9:53 am87 °FSunny.6 mph72%30.08 "Hg10 mi
8:53 am85 °FSunny.8 mph77%30.07 "Hg10 mi
7:53 am82 °FSunny.6 mph88%30.06 "Hg10 mi
6:53 am81 °FClear.5 mph91%30.04 "Hg10 mi
5:53 am81 °FClear.3 mph91%30.03 "Hg10 mi
Weather by CustomWeather, © 2017

See weather overviewHow to use our weather pages